Location: Waldport
(44.4270°N, 124.0680°W)
Time: 13:01:51
(UTC-07:00)

Amateur Radio Satellites - All Passes

Search period start: 24 July 2014 12:31
Search period end: 25 July 2014 12:31
Location: Waldport, 44.4270°N, 124.0680°W

Satellite Date Start Highest point End Downlink Frequencies (MHz)
Time Altitude Azimuth
Oscar 16 24 Jul 12:38:11 12:41:41 19° 61° (ENE) 12:45:11 437.025 USB, Beacon 2401.1428
KITSAT 1 24 Jul 12:41:22 12:45:49 15° 1° (N) 12:50:15 435.175 FM
ITAMSAT 1 24 Jul 12:50:33 12:52:23 12° 55° (NE) 12:54:13 435.822 SSB
HO-68 24 Jul 12:59:05 13:02:46 15° 312° (NW) 13:06:28 435.675 MHz FM
RS-15 24 Jul 12:59:23 13:06:04 18° 98° (E) 13:12:38 29.354 - 29.394 USB, Beacon 29.352 USB
PCSat 24 Jul 13:00:50 13:04:20 18° 255° (WSW) 13:07:48 145.825 MHz
AO-27 24 Jul 13:06:45 13:10:00 17° 59° (ENE) 13:13:14 436.795 MHz FM
AO-Echo 24 Jul 13:06:50 13:10:08 17° 59° (ENE) 13:13:27 ?
Uribyol 2 24 Jul 13:09:24 13:12:51 18° 60° (ENE) 13:16:18 436.500 FM
JAS-1B 24 Jul 13:20:20 13:27:23 27° 52° (NE) 13:34:55 435.800 - 435.900 CW/SSB
Oscar 19 24 Jul 13:47:55 13:53:00 71° 73° (ENE) 13:58:07 437.125 CW, 437.150 USB
AO-7 24 Jul 14:07:19 14:11:19 15° 41° (NE) 14:15:19 29.400 - 29.500 MHz
Oscar 16 24 Jul 14:15:29 14:20:33 63° 258° (WSW) 14:25:39 437.025 USB, Beacon 2401.1428
SO-50 24 Jul 14:15:57 14:20:17 53° 120° (ESE) 14:24:43 436.795 FM
TMSAT-1 24 Jul 14:18:37 14:22:36 22° 62° (ENE) 14:26:35 436.925 FM
ITAMSAT 1 24 Jul 14:25:47 14:31:00 76° 74° (ENE) 14:36:14 435.822 SSB
KITSAT 1 24 Jul 14:38:06 14:44:38 26° 31° (NNE) 14:51:08 435.175 FM
Gurwin Techsat 1B 24 Jul 14:38:31 14:43:29 42° 68° (ENE) 14:48:29 435.225 FM
AO-Echo 24 Jul 14:42:58 14:48:15 77° 257° (WSW) 14:53:37 ?
AO-27 24 Jul 14:43:41 14:48:54 75° 257° (WSW) 14:54:09 436.795 MHz FM
Uribyol 2 24 Jul 14:46:37 14:51:47 68° 258° (WSW) 14:57:00 436.500 FM
Uosat F 24 Jul 15:00:43 15:02:58 13° 57° (ENE) 15:05:12 435.120 FM
RS-15 24 Jul 15:05:23 15:16:28 76° 120° (ESE) 15:27:22 29.354 - 29.394 USB, Beacon 29.352 USB
UOSAT-12 24 Jul 15:06:32 15:08:51 14° 108° (ESE) 15:11:13 437.025 FM, 437.400 FM
JAS-1B 24 Jul 15:07:52 15:16:31 89° 74° (ENE) 15:26:23 435.800 - 435.900 CW/SSB
Oscar 19 24 Jul 15:30:01 15:32:53 15° 271° (W) 15:35:45 437.125 CW, 437.150 USB
AO-7 24 Jul 15:54:14 16:02:16 54° 63° (ENE) 16:10:20 29.400 - 29.500 MHz
TMSAT-1 24 Jul 15:56:56 16:02:07 56° 260° (W) 16:07:21 436.925 FM
SO-50 24 Jul 15:57:27 16:01:08 24° 320° (NW) 16:04:54 436.795 FM
ITAMSAT 1 24 Jul 16:08:17 16:11:04 14° 271° (W) 16:13:52 435.822 SSB
Gurwin Techsat 1B 24 Jul 16:19:08 16:23:36 27° 266° (W) 16:28:05 435.225 FM
KITSAT 1 24 Jul 16:33:16 16:41:25 78° 56° (NE) 16:49:29 435.175 FM
Uosat F 24 Jul 16:35:56 16:40:59 87° 75° (ENE) 16:46:05 435.120 FM
UOSAT-12 24 Jul 16:43:45 16:48:22 77° 306° (NW) 16:53:05 437.025 FM, 437.400 FM
JAS-1B 24 Jul 17:01:42 17:08:17 23° 276° (W) 17:15:31 435.800 - 435.900 CW/SSB
JAS-2 24 Jul 17:06:16 17:12:07 24° 58° (ENE) 17:17:44 435.800 - 435.900 CW/SSB, 435.910 FM
OPAL 24 Jul 17:08:45 17:13:40 50° 102° (ESE) 17:18:36 ?
RS-15 24 Jul 17:19:39 17:29:49 41° 326° (NW) 17:39:59 29.354 - 29.394 USB, Beacon 29.352 USB
Hamsat 24 Jul 17:22:01 17:24:53 18° 64° (ENE) 17:27:45 145.90 MHz
Saudisat 1A 24 Jul 17:23:33 17:27:46 41° 48° (NE) 17:31:56 436.775 MHz
AO-7 24 Jul 17:47:41 17:55:17 38° 262° (W) 18:02:57 29.400 - 29.500 MHz
Uosat F 24 Jul 18:18:42 18:20:27 12° 272° (W) 18:22:13 435.120 FM
UOSAT-12 24 Jul 18:26:24 18:29:19 16° 327° (NNW) 18:32:16 437.025 FM, 437.400 FM
KITSAT 1 24 Jul 18:29:47 18:35:59 25° 256° (WSW) 18:42:10 435.175 FM
OPAL 24 Jul 18:48:20 18:52:15 23° 299° (WNW) 18:56:11 ?
JAS-2 24 Jul 18:48:29 18:56:23 84° 256° (WSW) 19:03:54 435.800 - 435.900 CW/SSB, 435.910 FM
Hamsat 24 Jul 18:56:33 19:00:32 43° 262° (W) 19:04:33 145.90 MHz
Saudisat 1A 24 Jul 19:03:33 19:07:09 25° 246° (WSW) 19:10:44 436.775 MHz
STRAND 1 24 Jul 19:24:21 19:28:49 30° 95° (E) 19:33:15 ?
SO-67 24 Jul 19:28:01 19:31:27 65° 75° (ENE) 19:34:54 435.3500 MHz FM
RS-15 24 Jul 19:37:31 19:46:11 26° 0° (N) 19:54:55 29.354 - 29.394 USB, Beacon 29.352 USB
HO-68 24 Jul 19:53:29 19:59:02 25° 56° (NE) 20:04:36 435.675 MHz FM
JAS-2 24 Jul 20:37:17 20:42:14 18° 273° (W) 20:47:06 435.800 - 435.900 CW/SSB, 435.910 FM
UKube-1 24 Jul 20:50:31 20:54:11 27° 66° (ENE) 20:57:53 145.840 MHz, 145.915 MHz
STRAND 1 24 Jul 21:03:23 21:08:03 36° 293° (WNW) 21:12:41 ?
SO-50 24 Jul 21:06:17 21:09:15 16° 34° (NNE) 21:12:14 436.795 FM
HO-68 24 Jul 21:38:54 21:46:05 75° 255° (WSW) 21:53:17 435.675 MHz FM
Oscar 11 24 Jul 21:40:21 21:44:23 41° 71° (ENE) 21:48:27 145.825 FM, Beacon 2401.500 USB
FUNcube-1 24 Jul 21:49:51 21:53:05 21° 65° (ENE) 21:56:16 145.950 - 145.970 MHz USB
RS-15 24 Jul 21:52:22 22:02:33 41° 34° (NE) 22:12:57 29.354 - 29.394 USB, Beacon 29.352 USB
MaSat-1 24 Jul 22:10:43 22:13:54 23° 104° (ESE) 22:17:29 437.345 MHz
UKube-1 24 Jul 22:26:25 22:30:18 31° 263° (W) 22:34:13 145.840 MHz, 145.915 MHz
SO-50 24 Jul 22:45:50 22:50:35 77° 54° (NE) 22:55:24 436.795 FM
Oscar 11 24 Jul 23:17:40 23:20:46 19° 268° (W) 23:23:53 145.825 FM, Beacon 2401.500 USB
FUNcube-1 24 Jul 23:25:08 23:29:15 40° 262° (W) 23:33:19 145.950 - 145.970 MHz USB
HO-68 24 Jul 23:31:47 23:34:57 13° 274° (W) 23:38:07 435.675 MHz FM
UOSAT-12 24 Jul 23:32:18 23:36:13 25° 40° (NE) 23:40:05 437.025 FM, 437.400 FM
MaSat-1 24 Jul 23:47:07 23:50:57 38° 306° (NW) 23:55:24 437.345 MHz
RS-15 25 Jul 00:04:57 00:15:58 77° 240° (WSW) 00:27:22 29.354 - 29.394 USB, Beacon 29.352 USB
SO-50 25 Jul 00:27:59 00:30:35 15° 251° (WSW) 00:33:12 436.795 FM
ISS 25 Jul 00:41:03 00:42:02 11° 130° (SE) 00:43:02 145.800 FM
Lituanica SAT-1 25 Jul 01:03:17 01:05:21 60° 330° (NNW) 01:07:27 437.275 MHz beacon
UOSAT-12 25 Jul 01:12:03 01:16:42 57° 240° (WSW) 01:21:16 437.025 FM, 437.400 FM
Sapphire 25 Jul 01:26:49 01:31:00 23° 107° (ESE) 01:35:12 437.095 MHz 1200 baud AX-25 AFSK
Oscar 19 25 Jul 01:58:32 02:02:32 22° 93° (E) 02:06:30 437.125 CW, 437.150 USB
PCSat 25 Jul 01:59:29 02:04:37 47° 114° (ESE) 02:09:48 145.825 MHz
ISS 25 Jul 02:14:53 02:18:13 77° 147° (SSE) 02:21:36 145.800 FM
RS-15 25 Jul 02:19:32 02:26:27 19° 261° (W) 02:33:34 29.354 - 29.394 USB, Beacon 29.352 USB
Oscar 16 25 Jul 02:25:32 02:30:24 40° 98° (E) 02:35:14 437.025 USB, Beacon 2401.1428
Lituanica SAT-1 25 Jul 02:37:04 02:38:20 14° 350° (N) 02:39:35 437.275 MHz beacon
ITAMSAT 1 25 Jul 02:37:44 02:41:52 24° 93° (E) 02:45:58 435.822 SSB
AO-Echo 25 Jul 02:49:16 02:53:50 31° 95° (E) 02:58:14 ?
OPAL 25 Jul 02:49:18 02:52:13 16° 57° (ENE) 02:55:08 ?
JAS-1B 25 Jul 02:53:15 03:01:27 31° 88° (E) 03:08:45 435.800 - 435.900 CW/SSB
Gurwin Techsat 1B 25 Jul 02:54:26 02:57:17 15° 89° (E) 03:00:07 435.225 FM
AO-27 25 Jul 02:55:22 03:00:06 34° 97° (E) 03:04:47 436.795 MHz FM
Uribyol 2 25 Jul 02:57:53 03:02:41 38° 97° (E) 03:07:27 436.500 FM
Sapphire 25 Jul 03:08:43 03:14:01 56° 306° (NW) 03:19:22 437.095 MHz 1200 baud AX-25 AFSK
Oscar 10/S400 25 Jul 03:28:23 04:22:10 55° 201° (SSW) 11:56:25 145.825 - 145.975 CW/USB, Beacon 145.810 USB
Oscar 19 25 Jul 03:37:10 03:42:08 49° 290° (WNW) 03:47:05 437.125 CW, 437.150 USB
PCSat 25 Jul 03:43:26 03:48:13 31° 313° (NW) 03:53:03 145.825 MHz
ISS 25 Jul 03:52:13 03:55:13 29° 346° (NNW) 03:58:13 145.800 FM
AO-7 25 Jul 03:56:40 04:00:15 13° 85° (E) 04:03:48 29.400 - 29.500 MHz
Oscar 16 25 Jul 04:05:15 04:09:35 28° 295° (WNW) 04:13:55 437.025 USB, Beacon 2401.1428
Lituanica SAT-1 25 Jul 04:10:22 04:11:34 14° 9° (N) 04:12:46 437.275 MHz beacon
TMSAT-1 25 Jul 04:11:00 04:16:11 52° 100° (E) 04:21:19 436.925 FM
ITAMSAT 1 25 Jul 04:16:38 04:21:35 47° 291° (WNW) 04:26:30 435.822 SSB
OPAL 25 Jul 04:25:34 04:30:31 76° 254° (WSW) 04:35:29 ?
AO-Echo 25 Jul 04:27:58 04:32:36 34° 293° (WNW) 04:37:05 ?
Gurwin Techsat 1B 25 Jul 04:32:31 04:37:51 77° 286° (WNW) 04:43:08 435.225 FM
AO-27 25 Jul 04:34:58 04:39:33 33° 294° (WNW) 04:44:07 436.795 MHz FM
Uribyol 2 25 Jul 04:37:36 04:42:02 30° 295° (WNW) 04:46:27 436.500 FM
Uosat F 25 Jul 04:42:43 04:46:43 23° 94° (E) 04:50:41 435.120 FM
JAS-1B 25 Jul 04:43:02 04:52:42 70° 291° (WNW) 05:01:08 435.800 - 435.900 CW/SSB
Sapphire 25 Jul 04:56:01 04:58:41 14° 328° (NNW) 05:01:22 437.095 MHz 1200 baud AX-25 AFSK
ISS 25 Jul 05:29:48 05:32:38 24° 6° (N) 05:35:27 145.800 FM
Lituanica SAT-1 25 Jul 05:42:29 05:44:32 52° 28° (NNE) 05:46:35 437.275 MHz beacon
AO-7 25 Jul 05:46:12 05:54:33 69° 105° (ESE) 06:02:48 29.400 - 29.500 MHz
TMSAT-1 25 Jul 05:51:39 05:55:45 23° 298° (WNW) 05:59:51 436.925 FM
JAS-2 25 Jul 06:01:28 06:02:42 11° 82° (E) 06:03:54 435.800 - 435.900 CW/SSB, 435.910 FM
Gurwin Techsat 1B 25 Jul 06:14:54 06:16:56 12° 305° (NW) 06:18:57 435.225 FM
Uosat F 25 Jul 06:20:55 06:25:42 45° 291° (WNW) 06:30:26 435.120 FM
MaSat-1 25 Jul 06:27:01 06:30:26 17° 43° (NE) 06:33:51 437.345 MHz
JAS-1B 25 Jul 06:34:54 06:41:22 21° 313° (NW) 06:47:28 435.800 - 435.900 CW/SSB
Hamsat 25 Jul 06:40:39 06:44:22 28° 95° (E) 06:48:05 145.90 MHz
STRAND 1 25 Jul 06:41:43 06:46:41 52° 70° (ENE) 06:51:41 ?
KITSAT 1 25 Jul 07:03:24 07:10:52 43° 111° (ESE) 07:18:22 435.175 FM
ISS 25 Jul 07:06:31 07:09:51 56° 26° (NNE) 07:13:10 145.800 FM
Lituanica SAT-1 25 Jul 07:16:32 07:16:51 10° 224° (SW) 07:17:10 437.275 MHz beacon
AO-7 25 Jul 07:39:44 07:46:45 32° 306° (NW) 07:53:44 29.400 - 29.500 MHz
JAS-2 25 Jul 07:42:48 07:49:07 79° 103° (ESE) 07:54:40 435.800 - 435.900 CW/SSB, 435.910 FM
MaSat-1 25 Jul 08:03:17 08:08:39 82° 62° (ENE) 08:13:49 437.345 MHz
Hamsat 25 Jul 08:16:37 08:20:17 28° 292° (WNW) 08:23:58 145.90 MHz
STRAND 1 25 Jul 08:22:18 08:26:10 21° 268° (W) 08:30:03 ?
SO-67 25 Jul 08:23:17 08:26:45 63° 101° (E) 08:30:12 435.3500 MHz FM
ISS 25 Jul 08:43:37 08:46:22 23° 224° (SW) 08:49:05 145.800 FM
KITSAT 1 25 Jul 08:58:18 09:06:09 52° 312° (NW) 09:14:03 435.175 FM
PCSat 25 Jul 09:03:37 09:06:15 13° 32° (NNE) 09:08:52 145.825 MHz
HO-68 25 Jul 09:06:08 09:11:00 19° 90° (E) 09:15:50 435.675 MHz FM
Saudisat 1A 25 Jul 09:10:39 09:14:58 55° 120° (ESE) 09:19:18 436.775 MHz
JAS-2 25 Jul 09:29:11 09:33:19 19° 305° (NW) 09:37:10 435.800 - 435.900 CW/SSB, 435.910 FM
MaSat-1 25 Jul 09:42:25 09:45:18 15° 260° (W) 09:48:07 437.345 MHz
Sapphire 25 Jul 10:11:57 10:16:45 31° 46° (NE) 10:21:31 437.095 MHz 1200 baud AX-25 AFSK
UKube-1 25 Jul 10:12:39 10:16:43 37° 98° (E) 10:20:46 145.840 MHz, 145.915 MHz
PCSat 25 Jul 10:45:35 10:50:56 55° 54° (NE) 10:56:14 145.825 MHz
Saudisat 1A 25 Jul 10:51:20 10:54:52 23° 320° (NW) 10:58:25 436.775 MHz
HO-68 25 Jul 10:52:20 10:59:31 83° 288° (WNW) 11:06:39 435.675 MHz FM
KITSAT 1 25 Jul 10:58:05 11:03:43 20° 338° (NNW) 11:09:21 435.175 FM
Oscar 11 25 Jul 11:02:05 11:06:24 68° 102° (ESE) 11:10:43 145.825 FM, Beacon 2401.500 USB
FUNcube-1 25 Jul 11:12:35 11:16:19 31° 96° (E) 11:20:04 145.950 - 145.970 MHz USB
UKube-1 25 Jul 11:49:19 11:52:43 23° 295° (WNW) 11:56:07 145.840 MHz, 145.915 MHz
Sapphire 25 Jul 11:55:10 12:00:23 48° 246° (WSW) 12:05:33 437.095 MHz 1200 baud AX-25 AFSK
Oscar 16 25 Jul 12:09:58 12:10:47 10° 54° (NE) 12:11:36 437.025 USB, Beacon 2401.1428
